Погода в Анне

Погода в Анне : погода сейчас, прогноз погоды и архив. Всё, что Вы хотите узнать о погоде в Анне!

Хотите узнать прогноз погоды в Анне? Тогда Вам сюда: Погода в Анне

Поиск расширенной информации на нашем сайте:

Другие новости

Новости СМИ2

Главная страница сайта

Новости сайта

03.07.2017

Напоминаем, что на нашем специализированном сайте Метеоцентр.Азия вы можете получить высокодетализированные автоматические прогнозы погоды по пунктам России, СНГ и мира в авиационном формате (включающие направление и скорость ветра, видимость, явления погоды, количество и форму облачности, нижнюю и верхнюю границу облачности).


Погода в Анне - сегодня

Время (UTC), дата Ветер
(°,м/с) 
Видим.   Явления Облачность Т
(°С)
Тd
(°С)
f(%) Тe
(°С)
Pmin
(гПа)
dP
(гПа)
Po
(мм)
O2
(г/м3)
Тmin Tmax R s Состояние
почвы
12 20.10.17 020 (С) 10 км    3/3 600 м 
[Cu hum]
+10.5 +0.5 50 +11  1020.7  -0.5  751  291           
15 20.10.17 020 (С) 10 км    8/0 верхняя 
[Ci fib]
+5.9 -0.1 65 +6  1021.5  0.4  752  296    +11.3       
18 20.10.17 290 (З) 10 км    3/0 верхняя 
[Ci fib]
+1.7 -0.2 87 +2  1022.2  0.4  752  301           
21 20.10.17 тихо ()   10 км    ясно 
-0.9 -2.1 92 -1  1021.8  -0.5  752  304           
00 21.10.17 тихо ()   10 км    ясно 
-1.8 -3 91 -2  1021.6  -0.3  751  305           
03 21.10.17 тихо ()   10 км    8/0 средняя 
[Ac trans]
-1.1 -2 94 -1  1021.1  -0.4  751  304  -1.8         
06 21.10.17 тихо ()   10 км    9/9 600 м 
[Sc]
+2.2 +1.4 94 +2  1020.7  -0.2  751  300           
09 21.10.17 330 (СЗ) 10 км    9/9 600 м 
[Sc]
+6.2 +2 74 +7  1019.7  -0.7  750  295           
12 21.10.17 270 (З) 10 км    8/5 600 м кучево-дожд., средняя, верхняя 
[Cb calv|Ac trans|Ci sp]
+7.8 +0.5 60 +9  1017.8  -1.7  749  293           
15 21.10.17 тихо ()   10 км    10/4 600 м кучево-дожд., верхняя 
[Cb calv|Ci sp]
+5.2 +1.1 75 +5  1017.6  -0.4  749  296    +8.7       
18 21.10.17 тихо ()   10 км    10/0 средняя 
[As trans]
+1.6 +0 89 +2  1017.5  -0.4  749  300           
21 21.10.17 тихо ()   10 км    10/0 средняя 
[As trans]
+1 -0.4 90 +1  1016.7  -0.8  748  300           
00 22.10.17 020 (С) 10 км    10/0 средняя 
[As trans]
+1.4 -1.1 83 +2  1015.9  -0.8  747  300           
03 22.10.17 040 (СВ) 10 км    10/0 средняя 
[As op]
+1.5 -0.7 85 +2  1015.5  -0.3  747  299  +0.6         
06 22.10.17 020 (С) 10 км  слаб. ливневой снег  10/10 600 м кучево-дожд. 
[Cb calv]
+1.6 +0 89 1016.2  0.6  748  299           
09 22.10.17 020 (С) 10 км  {ливн. осадки}  8/6 600 м кучево-дожд., средняя 
[Cb calv|Ac trans]
+4.7 +0.6 75 +4  1016.1  0.2  748  296           
12 22.10.17 020 (С) 10 км  {ливн. осадки}  8/8 600 м кучево-дожд. 
[Cb calv]
+2.2 -1.5 76 1017.2  0.8  748  299           
15 22.10.17 тихо ()   10 км    4/3 600 м кучево-дожд., средняя 
[Cb calv|Ac trans]
-0.5 -2.6 86 -1  1018.2  0.9  749  303    +4.8  0.3     
18 22.10.17 340 (С) 10 км    ясно 
-0.9 -2.4 90 1019  0.8  750  303           
21 22.10.17 350 (С) 10 км    ясно 
-3.8 -4.6 94 -3  1020.4  1.1  750  307           
00 23.10.17 300 (СЗ) 10 км    ясно 
-4.9 -5.5 96 -6  1021.3  0.9  751  309           
03 23.10.17 тихо ()   10 км    ясно 
-6.1 -6.9 94 -6  1022.4  0.9  752  311  -6.4         
06 23.10.17 260 (З) 10 км    3/0 верхняя 
[Ci sp]
-1.4 -3.9 83 -1  1022.7  0.7  752  305  -6.7         
09 23.10.17 280 (З) 10 км    8/4 600 м кучево-дожд., верхняя 
[Cb calv|Ci fib]
+2.6 -3.6 64 +1  1022.6  0.2  752  301           
12 23.10.17 270 (З) 10 км    8/3 600 м кучево-дожд., верхняя 
[Cb calv|Ci fib]
+3.9 -4.8 53 +3  1022.4  -0.2  752  299           
Время (UTC), дата Ветер
(°,м/с) 
Видим.   Явления Облачность Т
(°С)
Тd
(°С)
f(%) Тe
(°С)
Pmin
(гПа)
dP
(гПа)
Po
(мм)
O2
(г/м3)
Тmin Tmax R s Состояние
почвы

Для получения пояснительной информации подведите курсор к названию столбца.

ПОГОДА в Анне - архив

Всё, что Вы хотите узнать о погоде в Анне - удобно и подробно!

Выберите нужную дату (начиная с 1 января 2015* года) и нажмите кнопку "Найти".
Будут отображены архивные сводки погоды по пункту Анна, начиная с указанной даты.


Отображать данные в формате CSV (для использования в таблицах Excel)


Внимание! Наш архив погоды предназначен исключительно для личного некоммерческого использования в познавательных целях. Если Вам необходимы официальные справки о состоянии погоды (для производственных, юридических, коммерческих и т.п. целей), обращайтесь в органы Росгидромета.

*Примечание: данная дата относится к архиву по метеостанциям СССР (Россия, СНГ, Балтия).
Архив по метеостанциям Зарубежной Европы и Азии (кроме Китая) хранится 10 дней, по другим регионам земного шара (Китай, Африка, Америка, Австралия, Океания) - 1 день.

Анна - район местоположения метеостанции


Название, широта, долгота, высота метеостанции:
Анна 51.5°ш. 40.4°д. 154 м над ур. моря [Российская Федерация]

Дополнительная информация

В oтличие oт бoльшинства пoгoдных сайтoв мы публикуем пoдрoбную метеoинфoрмацию в детальнoм прoфессиoнальнoм фoрмате.

Характеристики температуры и влажнoсти вoздуха измеряются на высoте 2 м в тени вдали oт зданий и деревьев.
Скoрoсть ветра измеряется на высoте 10 м (на урoвне рoста челoвека скoрoсть ветра ниже в 1.5-2 раза). Если метеoстанция нахoдится в гoрoде или в лесу, тo скoрoсть ветра занижена на 2-4 м/с пo сравнению с oткрытым местoм. Скoрoсть ветра над акватoриями крупных рек и oзёр, а также на вершинах хoлмoв на 2-5 м/с выше, чем в oбычных услoвиях.
Атмoсфернoе давление в разных тoчках местнoсти мoжет значительнo oтличаться oт давления на метеoстанции, в зависимoсти oт услoвий рельефа (при пoдъёме на 10 м давление пoнижается примернo на 1 мм рт.ст.).